Date String (YYYY-MM-DD hh:mm:ss) UTC,Instrument flags,Ambient pressure (hPa),Sample flow (lpm),Bypass flow (lpm),Sample temperature (°C),Ambient temperature (°C),ASC tube jacket temperature (°C),LED temperature (°C),Box temperature (°C),Sample RH (%),Span deviation,Mass concentration (μg/m³),Mass concentration (μg/m³),Mass concentration (μg/m³)
DateTimeUTC,F1_M11,P_M11,Q1_M11,Q2_M11,T1_M11,T2_M11,T3_M11,T4_M11,T5_M11,U1_M11,ZSPAN_M11,X2_M11,X0_M11,X1_M11
2023-03-13 05:00:00,,0826.4,5.01,0.00,22.6,22.5,00.0,31.1,24.5,14.9,-000.5,0006.77,0011.27,0006.16
2023-03-13 05:01:00,,0826.3,5.04,0.00,22.6,22.1,00.0,31.1,24.4,14.9,0000.2,0006.72,0010.86,0006.13
2023-03-13 05:02:00,,0826.3,5.00,0.00,22.6,21.7,00.0,31.2,24.4,15.0,0000.6,0006.74,0010.70,0006.14
2023-03-13 05:03:00,,0826.3,5.00,0.00,22.5,21.4,00.0,31.2,24.3,15.0,0000.4,0006.73,0011.28,0006.14
2023-03-13 05:04:00,,0826.3,5.01,0.00,22.5,21.2,00.0,31.2,24.3,15.0,0000.3,0006.68,0011.37,0006.13
2023-03-13 05:05:00,,0826.3,5.00,0.00,22.5,21.1,00.0,31.2,24.3,14.9,-000.1,0006.68,0011.40,0006.11
2023-03-13 05:06:00,,0826.4,5.00,0.00,22.5,20.9,00.0,31.2,24.2,14.8,-000.6,0006.64,0011.66,0006.08
2023-03-13 05:07:00,,0826.4,5.01,0.00,22.5,20.9,00.0,31.2,24.2,14.8,-000.8,0006.61,0011.96,0006.06
2023-03-13 05:08:00,,0826.4,5.02,0.00,22.5,20.8,00.0,31.2,24.2,14.9,-000.6,0006.66,0012.09,0006.07
2023-03-13 05:09:00,,0826.3,5.02,0.00,22.4,20.7,00.0,31.2,24.2,15.0,-000.9,0006.64,0011.70,0006.08
2023-03-13 05:10:00,,0826.4,4.98,0.00,22.4,20.6,00.0,31.2,24.2,15.0,-001.0,0006.63,0012.02,0006.08
2023-03-13 05:11:00,,0826.4,4.98,0.00,22.4,20.6,00.0,31.2,24.1,15.1,-001.1,0006.64,0012.09,0006.08
2023-03-13 05:12:00,,0826.3,4.99,0.00,22.4,20.6,00.0,31.1,24.1,15.1,-001.4,0006.66,0012.31,0006.10
2023-03-13 05:13:00,,0826.4,5.00,0.00,22.4,20.5,00.0,31.1,24.1,15.2,-001.3,0006.65,0012.56,0006.09
2023-03-13 05:14:00,,0826.4,5.01,0.00,22.3,20.5,00.0,31.1,24.1,15.1,-001.0,0006.65,0012.06,0006.07
2023-03-13 05:15:00,,0826.3,5.00,0.00,22.3,20.4,00.0,31.1,24.0,15.1,-001.1,0006.65,0011.59,0006.07
2023-03-13 05:16:00,,0826.3,5.00,0.00,22.3,20.4,00.0,31.1,24.0,15.0,-000.4,0006.65,0011.63,0006.07
2023-03-13 05:17:00,,0826.3,5.01,0.00,22.3,20.4,00.0,31.1,24.0,15.0,0000.0,0006.67,0011.50,0006.09
2023-03-13 05:18:00,,0826.3,5.01,0.00,22.3,20.4,00.0,31.1,24.0,15.0,-000.1,0006.66,0010.98,0006.10
2023-03-13 05:19:00,,0826.3,4.99,0.00,22.3,20.4,00.0,31.1,24.0,14.9,-000.0,0006.60,0010.89,0006.06
2023-03-13 05:20:00,,0826.3,4.98,0.00,22.2,20.3,00.0,31.0,24.0,14.9,0000.5,0006.51,0010.67,0006.01
2023-03-13 05:21:00,,0826.3,5.01,0.00,22.2,20.3,00.0,31.0,23.9,14.9,0000.9,0006.44,0010.55,0005.96
2023-03-13 05:22:00,,0826.3,5.00,0.00,22.2,20.4,00.0,31.0,23.9,14.9,0000.9,0006.39,0010.94,0005.91
2023-03-13 05:23:00,,0826.4,5.03,0.00,22.2,21.2,00.0,31.0,24.1,14.8,0001.0,0006.33,0010.81,0005.86
2023-03-13 05:24:00,,0826.5,5.00,0.00,22.3,22.4,00.0,31.0,24.4,14.7,0000.7,0006.27,0010.44,0005.80
2023-03-13 05:25:00,,0826.5,5.00,0.00,22.5,23.1,00.0,31.0,24.5,14.6,0000.6,0006.22,0010.40,0005.75
2023-03-13 05:26:00,,0826.4,5.00,0.00,22.5,22.6,00.0,31.1,24.5,14.6,0000.7,0006.13,0010.33,0005.67
2023-03-13 05:27:00,,0826.4,5.00,0.00,22.5,22.2,00.0,31.1,24.4,14.6,0000.1,0006.09,0010.25,0005.63
2023-03-13 05:28:00,,0826.4,5.00,0.00,22.5,21.9,00.0,31.1,24.4,14.5,-000.6,0006.00,0010.11,0005.57
2023-03-13 05:29:00,,0826.4,5.01,0.00,22.5,21.6,00.0,31.1,24.3,14.5,-000.2,0005.96,0010.05,0005.52
2023-03-13 05:30:00,,0826.4,5.00,0.00,22.5,21.4,00.0,31.1,24.3,14.6,-000.1,0005.95,0010.06,0005.50
2023-03-13 05:31:00,,0826.4,5.01,0.00,22.5,21.3,00.0,31.2,24.2,14.6,-000.7,0005.94,0010.05,0005.49
2023-03-13 05:32:00,,0826.4,5.01,0.00,22.5,21.1,00.0,31.2,24.2,14.6,-001.3,0005.94,0010.11,0005.49
2023-03-13 05:33:00,,0826.4,4.99,0.00,22.5,21.1,00.0,31.2,24.2,14.6,-001.5,0005.95,0010.29,0005.51
2023-03-13 05:34:00,,0826.3,4.99,0.00,22.5,21.0,00.0,31.2,24.2,14.7,-001.7,0005.97,0010.21,0005.51
2023-03-13 05:35:00,,0826.4,5.00,0.00,22.4,20.9,00.0,31.2,24.2,14.6,-001.8,0005.94,0010.16,0005.51
2023-03-13 05:36:00,,0826.4,5.00,0.00,22.4,20.9,00.0,31.2,24.2,14.6,-002.1,0005.95,0011.37,0005.50
2023-03-13 05:37:00,,0826.4,5.01,0.00,22.4,20.9,00.0,31.2,24.2,14.6,-002.4,0006.00,0012.08,0005.51
2023-03-13 05:38:00,,0826.4,5.00,0.00,22.4,20.8,00.0,31.2,24.1,14.7,-002.7,0006.00,0012.03,0005.52
2023-03-13 05:39:00,,0826.4,5.00,0.00,22.4,20.8,00.0,31.2,24.1,14.7,-002.5,0006.04,0012.10,0005.55
2023-03-13 05:40:00,,0826.4,5.01,0.00,22.4,20.8,00.0,31.1,24.1,14.7,-002.5,0006.05,0012.15,0005.57
2023-03-13 05:41:00,,0826.4,4.99,0.00,22.3,20.7,00.0,31.1,24.0,14.7,-002.7,0006.07,0012.23,0005.57
2023-03-13 05:42:00,,0826.4,5.00,0.00,22.3,20.6,00.0,31.1,24.1,14.7,-002.7,0006.11,0012.82,0005.58
2023-03-13 05:43:00,,0826.4,5.00,0.00,22.3,20.6,00.0,31.1,24.0,14.7,-002.6,0006.10,0012.70,0005.58
2023-03-13 05:44:00,,0826.4,5.01,0.00,22.3,20.6,00.0,31.1,24.0,14.8,-002.5,0006.09,0011.70,0005.58
2023-03-13 05:45:00,,0826.4,5.00,0.00,22.3,20.6,00.0,31.1,24.0,14.8,-002.2,0006.08,0011.65,0005.56
2023-03-13 05:46:00,,0826.4,4.99,0.00,22.3,20.6,00.0,31.1,24.0,14.8,-002.2,0006.11,0011.79,0005.55
2023-03-13 05:47:00,,0826.4,5.00,0.00,22.3,20.6,00.0,31.1,24.0,14.8,-001.8,0006.10,0010.69,0005.57
2023-03-13 05:48:00,,0826.4,5.01,0.00,22.2,20.6,00.0,31.1,24.0,14.8,-001.7,0006.04,0009.85,0005.56
2023-03-13 05:49:00,,0826.4,5.00,0.00,22.2,20.6,00.0,31.1,24.0,14.9,-001.6,0006.03,0009.86,0005.54
2023-03-13 05:50:00,,0826.4,4.99,0.00,22.2,20.6,00.0,31.0,23.9,14.9,-001.4,0006.00,0009.80,0005.53
2023-03-13 05:51:00,,0826.4,5.01,0.00,22.2,20.5,00.0,31.0,23.9,14.9,-000.9,0005.99,0009.96,0005.54
2023-03-13 05:52:00,,0826.3,5.00,0.00,22.2,20.5,00.0,31.0,23.9,14.9,-000.9,0005.97,0009.86,0005.54
2023-03-13 05:53:00,,0826.3,5.00,0.00,22.2,20.6,00.0,31.0,23.9,14.9,-000.7,0005.95,0009.31,0005.54
2023-03-13 05:54:00,,0826.3,5.01,0.00,22.2,21.4,00.0,31.0,24.1,14.9,-000.2,0005.96,0009.28,0005.54
2023-03-13 05:55:00,,0826.4,5.00,0.00,22.4,22.4,00.0,31.0,24.4,14.9,-000.1,0006.01,0009.77,0005.55
2023-03-13 05:56:00,,0826.3,5.00,0.00,22.5,22.9,00.0,31.0,24.5,15.0,-000.7,0006.05,0010.11,0005.60
2023-03-13 05:57:00,,0826.3,4.99,0.00,22.5,22.5,00.0,31.1,24.5,15.0,-000.0,0006.06,0010.24,0005.64
2023-03-13 05:58:00,,0826.3,5.00,0.00,22.5,22.2,00.0,31.1,24.4,15.0,0000.2,0006.11,0010.34,0005.70
2023-03-13 05:59:00,,0826.2,5.00,0.00,22.5,21.8,00.0,31.1,24.3,15.2,0000.4,0006.25,0010.50,0005.80
